Date String (YYYY-MM-DD hh:mm:ss) UTC,Instrument flags,absolute air pressure of the measurement (hPa),sample flow rate (lpm),inlet stack bypass flow (lpm),air temperature of the measurement (°C),ambient temperature measured by the external sensor (°C),aerosol sample conditioner tube jacket temperature (°C),OPC LED temperature (°C),internal box temperature (°C),relative humidity of the measurement (%),span deviation,mass concentration of particles derived from Lorenz-Mie calculation of OPC scattering (μg/m³),mass concentration of particles derived from Lorenz-Mie calculation of OPC scattering (μg/m³),mass concentration of particles derived from Lorenz-Mie calculation of OPC scattering (μg/m³)
DateTimeUTC,F1_M11,P_M11,Q1_M11,Q2_M11,T1_M11,T2_M11,T3_M11,T4_M11,T5_M11,U1_M11,ZSPAN_M11,X0_M11,X2_M11,X1_M11
2023-05-31 15:00:00,SystemResetWarning,0828.2,5.00,000.00,028.6,027.1,000.0,036.8,030.2,24.3,0000.0,0015.38,0004.95,0003.60
2023-05-31 15:01:00,SystemResetWarning,0828.2,5.01,000.00,028.6,027.1,000.0,036.9,030.2,24.6,0000.0,0014.95,0004.92,0003.61
2023-05-31 15:02:00,SystemResetWarning,0828.2,5.01,000.00,028.6,027.1,000.0,036.9,030.2,25.4,0000.0,0014.87,0004.92,0003.60
2023-05-31 15:03:00,SystemResetWarning,0828.2,5.00,000.00,028.6,027.1,000.0,036.9,030.2,25.4,0000.0,0014.50,0004.91,0003.59
2023-05-31 15:04:00,SystemResetWarning,0828.2,5.00,000.00,028.6,027.2,000.0,036.9,030.2,24.5,0000.0,0015.25,0004.94,0003.58
2023-05-31 15:05:00,SystemResetWarning,0828.2,4.99,000.00,028.6,027.2,000.0,036.9,030.3,24.8,0000.0,0015.42,0004.87,0003.57
2023-05-31 15:06:00,SystemResetWarning,0828.1,5.00,000.00,028.6,027.2,000.0,036.9,030.3,24.8,0000.0,0016.43,0004.85,0003.56
2023-05-31 15:07:00,SystemResetWarning,0828.1,5.00,000.00,028.6,027.2,000.0,036.9,030.3,25.3,0000.0,0016.99,0004.89,0003.56
2023-05-31 15:08:00,SystemResetWarning,0828.1,5.00,000.00,028.6,027.2,000.0,036.9,030.3,24.3,0000.0,0017.83,0004.92,0003.57
2023-05-31 15:09:00,SystemResetWarning,0828.1,5.00,000.00,028.6,027.2,000.0,036.9,030.3,24.6,0000.0,0017.56,0004.94,0003.58
2023-05-31 15:10:00,SystemResetWarning,0828.1,5.00,000.00,028.6,027.2,000.0,036.9,030.3,24.6,0000.0,0018.05,0004.94,0003.58
2023-05-31 15:11:00,SystemResetWarning,0828.1,5.01,000.00,028.6,027.2,000.0,036.9,030.3,23.9,0000.0,0019.57,0004.93,0003.56
2023-05-31 15:12:00,SystemResetWarning,0828.1,5.01,000.00,028.6,027.2,000.0,036.9,030.3,24.0,0000.0,0019.51,0004.91,0003.55
2023-05-31 15:13:00,SystemResetWarning,0828.1,5.00,000.00,028.6,027.1,000.0,036.9,030.3,23.6,0000.0,0018.34,0004.90,0003.53
2023-05-31 15:14:00,SystemResetWarning,0828.1,4.99,000.00,028.6,027.1,000.0,036.9,030.3,23.6,0000.0,0018.11,0004.85,0003.50
2023-05-31 15:15:00,SystemResetWarning,0828.1,5.00,000.00,028.6,027.1,000.0,036.9,030.3,23.9,0000.0,0017.54,0004.82,0003.49
2023-05-31 15:16:00,SystemResetWarning,0828.2,5.00,000.00,028.6,027.1,000.0,037.0,030.2,24.1,0000.0,0016.95,0004.74,0003.47
2023-05-31 15:17:00,SystemResetWarning,0828.1,5.00,000.00,028.6,027.1,000.0,037.0,030.3,24.4,0000.0,0016.14,0004.77,0003.47
2023-05-31 15:18:00,SystemResetWarning,0828.1,5.00,000.00,028.7,027.1,000.0,037.0,030.3,23.8,0000.0,0015.99,0004.86,0003.47
2023-05-31 15:19:00,SystemResetWarning,0828.1,5.00,000.00,028.7,027.2,000.0,037.0,030.3,23.0,0000.0,0015.48,0004.88,0003.45
2023-05-31 15:20:00,SystemResetWarning,0828.1,5.00,000.00,028.7,027.2,000.0,037.0,030.3,22.8,0000.0,0015.81,0004.81,0003.41
2023-05-31 15:21:00,SystemResetWarning,0828.1,5.00,000.00,028.7,027.2,000.0,037.0,030.3,22.6,0000.0,0015.31,0004.75,0003.37
2023-05-31 15:22:00,SystemResetWarning,0828.0,5.01,000.00,028.7,027.2,000.0,037.0,030.3,23.0,0000.0,0014.54,0004.72,0003.36
2023-05-31 15:23:00,SystemResetWarning,0828.0,5.00,000.00,028.7,027.2,000.0,037.0,030.3,23.2,0000.0,0014.41,0004.66,0003.36
2023-05-31 15:24:00,SystemResetWarning,0828.0,5.00,000.00,028.7,027.2,000.0,037.0,030.3,22.4,0000.0,0015.32,0004.58,0003.35
2023-05-31 15:25:00,SystemResetWarning,0828.0,4.99,000.00,028.7,027.2,000.0,037.0,030.3,23.2,0000.0,0015.27,0004.60,0003.35
2023-05-31 15:26:00,SystemResetWarning,0828.1,4.99,000.00,028.7,027.2,000.0,037.0,030.3,23.6,0000.0,0015.38,0004.64,0003.35
2023-05-31 15:27:00,SystemResetWarning,0828.1,5.00,000.00,028.7,027.2,000.0,037.0,030.3,24.4,0000.0,0015.74,0004.70,0003.36
2023-05-31 15:28:00,SystemResetWarning,0828.1,5.00,000.00,028.7,027.2,000.0,037.0,030.3,24.2,0000.0,0015.61,0004.72,0003.36
2023-05-31 15:29:00,SystemResetWarning,0828.1,5.01,000.00,028.7,027.2,000.0,037.0,030.3,24.4,0000.0,0015.20,0004.61,0003.35
2023-05-31 15:30:00,SystemResetWarning,0828.1,5.00,000.00,028.7,027.2,000.0,037.0,030.3,24.4,0000.0,0014.88,0004.57,0003.35
2023-05-31 15:31:00,SystemResetWarning,0828.1,5.00,000.00,028.7,027.2,000.0,037.0,030.3,25.2,0000.0,0014.69,0004.59,0003.37
2023-05-31 15:32:00,SystemResetWarning,0828.0,4.99,000.00,028.7,027.0,000.0,037.0,030.1,24.8,0000.0,0014.61,0004.66,0003.39
2023-05-31 15:33:00,SystemResetWarning,0827.9,4.99,000.00,028.6,026.7,000.0,037.0,029.8,24.9,0000.0,0014.50,0004.75,0003.43
2023-05-31 15:34:00,SystemResetWarning,0827.9,4.99,000.00,028.5,026.4,000.0,037.0,029.8,25.2,0000.0,0013.95,0004.80,0003.45
2023-05-31 15:35:00,SystemResetWarning,0827.8,5.00,000.00,028.4,026.1,000.0,036.9,029.6,25.3,0000.0,0012.99,0004.86,0003.48
2023-05-31 15:36:00,SystemResetWarning,0827.8,5.00,000.00,028.3,025.8,000.0,036.9,029.5,24.6,0000.0,0012.84,0004.93,0003.51
2023-05-31 15:37:00,SystemResetWarning,0827.8,5.00,000.00,028.2,025.6,000.0,036.8,029.3,25.2,0000.0,0012.89,0004.93,0003.52
2023-05-31 15:38:00,SystemResetWarning,0827.8,5.00,000.00,028.0,025.3,000.0,036.8,029.2,25.7,0000.0,0012.94,0004.94,0003.54
2023-05-31 15:39:00,SystemResetWarning,0827.8,5.00,000.00,027.9,025.1,000.0,036.7,029.0,25.8,0000.0,0013.40,0004.90,0003.55
2023-05-31 15:40:00,SystemResetWarning,0827.8,5.01,000.00,027.8,024.9,000.0,036.6,028.9,25.8,0000.0,0013.17,0004.89,0003.57
2023-05-31 15:41:00,SystemResetWarning,0827.8,5.00,000.00,027.7,024.8,000.0,036.6,028.8,26.1,0000.0,0013.32,0004.97,0003.59
2023-05-31 15:42:00,SystemResetWarning,0827.8,5.00,000.00,027.6,024.8,000.0,036.5,028.7,26.8,0000.0,0013.06,0005.02,0003.61
2023-05-31 15:43:00,SystemResetWarning,0827.7,5.00,000.00,027.5,024.7,000.0,036.4,028.7,27.0,0000.0,0012.98,0005.06,0003.63
2023-05-31 15:44:00,SystemResetWarning,0827.7,4.99,000.00,027.4,024.6,000.0,036.4,028.6,27.0,0000.0,0013.69,0005.07,0003.63
2023-05-31 15:45:00,SystemResetWarning,0827.7,5.00,000.00,027.4,024.5,000.0,036.3,028.5,26.6,0000.0,0013.81,0005.07,0003.63
2023-05-31 15:46:00,SystemResetWarning,0827.7,5.00,000.00,027.3,024.4,000.0,036.2,028.5,26.9,0000.0,0014.48,0005.11,0003.64
2023-05-31 15:47:00,SystemResetWarning,0827.7,5.00,000.00,027.2,024.3,000.0,036.1,028.4,27.1,0000.0,0014.95,0005.10,0003.64
2023-05-31 15:48:00,SystemResetWarning,0827.7,4.99,000.00,027.2,024.2,000.0,036.1,028.3,27.6,0000.0,0015.14,0005.11,0003.63
2023-05-31 15:49:00,SystemResetWarning,0827.7,5.00,000.00,027.1,024.1,000.0,036.0,028.3,27.7,0000.0,0015.17,0005.07,0003.62
2023-05-31 15:50:00,SystemResetWarning,0827.7,5.00,000.00,027.0,024.0,000.0,035.9,028.2,27.4,0000.0,0015.03,0005.09,0003.62
2023-05-31 15:51:00,SystemResetWarning,0827.8,5.01,000.00,027.0,024.0,000.0,035.9,028.1,27.6,0000.0,0015.42,0005.13,0003.63
2023-05-31 15:52:00,SystemResetWarning,0827.7,5.01,000.00,026.9,023.9,000.0,035.8,028.1,28.1,0000.0,0016.05,0005.13,0003.63
2023-05-31 15:53:00,SystemResetWarning,0827.7,5.00,000.00,026.8,023.9,000.0,035.7,028.0,27.5,0000.0,0017.50,0005.09,0003.63
2023-05-31 15:54:00,SystemResetWarning,0827.7,5.00,000.00,026.8,023.9,000.0,035.7,028.0,27.5,0000.0,0018.44,0005.06,0003.62
2023-05-31 15:55:00,SystemResetWarning,0827.6,5.00,000.00,026.7,023.9,000.0,035.6,027.9,28.0,0000.0,0017.26,0005.06,0003.63
2023-05-31 15:56:00,SystemResetWarning,0827.6,5.01,000.00,026.7,024.0,000.0,035.5,028.1,28.4,0000.0,0017.23,0005.06,0003.64
2023-05-31 15:57:00,SystemResetWarning,0827.6,4.99,000.00,026.7,024.2,000.0,035.5,028.2,28.3,0000.0,0016.68,0005.07,0003.66
2023-05-31 15:58:00,SystemResetWarning,0827.6,5.00,000.00,026.8,024.5,000.0,035.5,028.4,27.8,0000.0,0017.07,0005.12,0003.67
2023-05-31 15:59:00,SystemResetWarning,0827.6,5.00,000.00,026.8,024.7,000.0,035.4,028.5,27.6,0000.0,0017.42,0005.17,0003.69
